When you browse on this site, cookies collect data to enhance your experience and personalize the content and advertising you see.
Visit our Privacy Policy to learn more. By continuing to use the site, you agree to this use of cookies and data.
  • In United Kingdom
  • List of Countries
  • For 7 days
  • Water Temperature
  • Satellite Maps
  • Weather Map
  • Weather Widgets
  • user-avatar
    Login

    Hourly Weather San Pedro Amuzgos

    Today, 20 March, Wednesday

    Time Temperature Precipitation Wind Pressure Humidity
    00:00 +23°C° 0 mm 1 mps 718 mmHg 86%
    01:00 +23°C° 0 mm 1 mps 718 mmHg 86%
    02:00 +22°C° 0 mm 1 mps 717 mmHg 86%
    03:00 +22°C° 0 mm 1 mps 717 mmHg 84%
    04:00 +22°C° 0 mm 1 mps 717 mmHg 83%
    05:00 +22°C° 0 mm 1 mps 718 mmHg 82%
    06:00 +25°C° 0 mm 1 mps 718 mmHg 71%
    07:00 +27°C° 0 mm 1 mps 719 mmHg 60%
    08:00 +28°C° 0 mm 0 mps 720 mmHg 48%
    09:00 +32°C° 0 mm 1 mps 720 mmHg 42%
    10:00 +34°C° 0 mm 1 mps 720 mmHg 36%
    11:00 +37°C° 0 mm 2 mps 720 mmHg 29%
    12:00 +37°C° 0 mm 2 mps 719 mmHg 29%
    13:00 +37°C° 0 mm 3 mps 718 mmHg 29%
    14:00 +37°C° 0 mm 4 mps 717 mmHg 29%
    15:00 +35°C° 0 mm 3 mps 717 mmHg 34%
    16:00 +33°C° 0 mm 3 mps 717 mmHg 38%
    17:00 +31°C° 0 mm 3 mps 716 mmHg 43%
    18:00 +28°C° 0 mm 2 mps 717 mmHg 51%
    19:00 +26°C° 0 mm 1 mps 718 mmHg 59%
    20:00 +22°C° 0 mm 0 mps 718 mmHg 67%
    21:00 +22°C° 0 mm 0 mps 718 mmHg 68%
    22:00 +24°C° 0 mm 1 mps 719 mmHg 68%
    23:00 +23°C° 0 mm 1 mps 719 mmHg 68%

    Tomorrow, 21 March, Thursday

    Time Temperature Precipitation Wind Pressure Humidity
    00:00 +23°C° 0 mm 1 mps 718 mmHg 68%
    01:00 +23°C° 0 mm 1 mps 718 mmHg 67%
    02:00 +23°C° 0 mm 1 mps 717 mmHg 66%
    03:00 +23°C° 0 mm 1 mps 717 mmHg 65%
    04:00 +23°C° 0 mm 1 mps 718 mmHg 65%
    05:00 +23°C° 0 mm 1 mps 718 mmHg 64%
    06:00 +26°C° 0 mm 1 mps 718 mmHg 55%
    07:00 +27°C° 0 mm 0 mps 719 mmHg 47%
    08:00 +30°C° 0 mm 0 mps 720 mmHg 38%
    09:00 +33°C° 0 mm 1 mps 720 mmHg 34%
    10:00 +35°C° 0 mm 1 mps 720 mmHg 30%
    11:00 +38°C° 0 mm 2 mps 720 mmHg 26%
    12:00 +37°C° 0 mm 2 mps 719 mmHg 27%
    13:00 +37°C° 0 mm 3 mps 718 mmHg 28%
    14:00 +37°C° 0 mm 3 mps 717 mmHg 29%
    15:00 +35°C° 0 mm 3 mps 717 mmHg 33%
    16:00 +34°C° 0 mm 2 mps 717 mmHg 37%
    17:00 +31°C° 0 mm 2 mps 717 mmHg 41%
    18:00 +29°C° 0 mm 1 mps 717 mmHg 48%
    19:00 +27°C° 0 mm 1 mps 718 mmHg 55%
    20:00 +23°C° 0 mm 0 mps 719 mmHg 63%
    21:00 +23°C° 0 mm 0 mps 719 mmHg 63%
    22:00 +23°C° 0 mm 0 mps 719 mmHg 63%
    23:00 +25°C° 0 mm 1 mps 719 mmHg 64%

    Day after tomorrow, 22 March, Friday

    Time Temperature Precipitation Wind Pressure Humidity
    00:00 +25°C° 0 mm 1 mps 719 mmHg 63%
    01:00 +24°C° 0 mm 1 mps 718 mmHg 62%
    02:00 +24°C° 0 mm 1 mps 718 mmHg 61%
    03:00 +24°C° 0 mm 1 mps 718 mmHg 61%
    04:00 +23°C° 0 mm 1 mps 718 mmHg 60%
    05:00 +23°C° 0 mm 1 mps 718 mmHg 60%
    06:00 +26°C° 0 mm 1 mps 719 mmHg 52%
    07:00 +27°C° 0 mm 0 mps 719 mmHg 43%
    08:00 +30°C° 0 mm 0 mps 720 mmHg 35%
    09:00 +34°C° 0 mm 1 mps 720 mmHg 31%
    10:00 +35°C° 0 mm 1 mps 720 mmHg 27%
    11:00 +38°C° 0 mm 2 mps 720 mmHg 23%
    12:00 +38°C° 0 mm 3 mps 719 mmHg 25%
    13:00 +38°C° 0 mm 4 mps 718 mmHg 26%
    14:00 +37°C° 0 mm 4 mps 717 mmHg 27%
    15:00 +36°C° 0 mm 4 mps 717 mmHg 31%
    16:00 +34°C° 0 mm 3 mps 717 mmHg 36%
    17:00 +31°C° 0 mm 3 mps 717 mmHg 40%
    18:00 +29°C° 0 mm 2 mps 717 mmHg 48%
    19:00 +27°C° 0 mm 1 mps 718 mmHg 55%
    20:00 +23°C° 0 mm 0 mps 719 mmHg 62%
    21:00 +25°C° 0 mm 1 mps 719 mmHg 63%
    22:00 +24°C° 0 mm 1 mps 719 mmHg 65%
    23:00 +24°C° 0 mm 1 mps 719 mmHg 66%

    23 March, Saturday

    Time Temperature Precipitation Wind Pressure Humidity
    00:00 +23°C° 0 mm 1 mps 718 mmHg 64%
    01:00 +23°C° 0 mm 1 mps 718 mmHg 63%
    02:00 +23°C° 0 mm 1 mps 717 mmHg 61%
    03:00 +23°C° 0 mm 1 mps 718 mmHg 60%
    04:00 +22°C° 0 mm 1 mps 718 mmHg 58%
    05:00 +22°C° 0 mm 1 mps 718 mmHg 57%
    06:00 +25°C° 0 mm 1 mps 719 mmHg 49%
    07:00 +28°C° 0 mm 1 mps 719 mmHg 41%
    08:00 +29°C° 0 mm 0 mps 720 mmHg 33%
    09:00 +33°C° 0 mm 1 mps 720 mmHg 30%
    10:00 +35°C° 0 mm 1 mps 720 mmHg 26%
    11:00 +38°C° 0 mm 2 mps 720 mmHg 22%
    12:00 +38°C° 0 mm 2 mps 719 mmHg 23%
    13:00 +38°C° 0 mm 3 mps 718 mmHg 23%
    14:00 +38°C° 0 mm 4 mps 717 mmHg 23%
    15:00 +36°C° 0 mm 3 mps 717 mmHg 28%
    16:00 +35°C° 0 mm 3 mps 717 mmHg 33%
    17:00 +33°C° 0 mm 3 mps 717 mmHg 37%
    18:00 +30°C° 0 mm 2 mps 717 mmHg 45%
    19:00 +27°C° 0 mm 1 mps 718 mmHg 54%
    20:00 +23°C° 0 mm 0 mps 719 mmHg 62%
    21:00 +23°C° 0 mm 0 mps 719 mmHg 63%
    22:00 +24°C° 0 mm 1 mps 719 mmHg 64%
    23:00 +24°C° 0 mm 1 mps 719 mmHg 65%

    24 March, Sunday

    Time Temperature Precipitation Wind Pressure Humidity
    00:00 +23°C° 0 mm 1 mps 718 mmHg 65%
    01:00 +23°C° 0 mm 1 mps 718 mmHg 64%
    02:00 +22°C° 0 mm 1 mps 717 mmHg 64%
    03:00 +22°C° 0 mm 1 mps 718 mmHg 63%
    04:00 +22°C° 0 mm 1 mps 718 mmHg 61%
    05:00 +22°C° 0 mm 1 mps 718 mmHg 60%
    06:00 +25°C° 0 mm 1 mps 719 mmHg 51%
    07:00 +26°C° 0 mm 0 mps 719 mmHg 42%
    08:00 +30°C° 0 mm 0 mps 720 mmHg 33%
    09:00 +33°C° 0 mm 1 mps 720 mmHg 29%
    10:00 +36°C° 0 mm 2 mps 719 mmHg 25%
    11:00 +38°C° 0 mm 2 mps 719 mmHg 21%
    12:00 +38°C° 0 mm 3 mps 718 mmHg 22%
    13:00 +37°C° 0 mm 4 mps 717 mmHg 23%
    14:00 +37°C° 0 mm 4 mps 717 mmHg 24%
    15:00 +35°C° 0 mm 4 mps 716 mmHg 30%
    16:00 +34°C° 0 mm 3 mps 716 mmHg 35%
    17:00 +31°C° 0 mm 2 mps 716 mmHg 41%
    18:00 +29°C° 0 mm 2 mps 717 mmHg 49%
    19:00 +27°C° 0 mm 1 mps 717 mmHg 58%
    20:00 +23°C° 0 mm 0 mps 718 mmHg 66%
    21:00 +22°C° 0 mm 0 mps 718 mmHg 67%
    22:00 +22°C° 0 mm 0 mps 718 mmHg 67%
    23:00 +24°C° 0 mm 1 mps 718 mmHg 68%

    25 March, Monday

    Time Temperature Precipitation Wind Pressure Humidity
    00:00 +23°C° 0 mm 1 mps 717 mmHg 67%
    01:00 +23°C° 0 mm 1 mps 717 mmHg 66%
    02:00 +23°C° 0 mm 1 mps 716 mmHg 64%
    03:00 +23°C° 0 mm 1 mps 716 mmHg 63%
    04:00 +23°C° 0 mm 1 mps 716 mmHg 62%
    05:00 +23°C° 0 mm 1 mps 717 mmHg 61%
    06:00 +24°C° 0 mm 0 mps 717 mmHg 53%
    07:00 +27°C° 0 mm 0 mps 718 mmHg 45%
    08:00 +30°C° 0 mm 0 mps 719 mmHg 37%
    09:00 +34°C° 0 mm 1 mps 718 mmHg 34%
    10:00 +36°C° 0 mm 2 mps 718 mmHg 30%
    11:00 +38°C° 0 mm 3 mps 718 mmHg 27%
    12:00 +38°C° 0 mm 3 mps 717 mmHg 27%
    13:00 +38°C° 0 mm 3 mps 716 mmHg 27%
    14:00 +37°C° 0 mm 4 mps 716 mmHg 27%
    15:00 +36°C° 0 mm 3 mps 715 mmHg 30%
    16:00 +34°C° 0 mm 3 mps 715 mmHg 32%
    17:00 +32°C° 0 mm 2 mps 715 mmHg 35%
    18:00 +30°C° 0 mm 1 mps 716 mmHg 41%
    19:00 +27°C° 0 mm 1 mps 716 mmHg 48%
    20:00 +23°C° 0 mm 0 mps 717 mmHg 54%
    21:00 +23°C° 0 mm 0 mps 717 mmHg 54%
    22:00 +25°C° 0 mm 1 mps 717 mmHg 55%
    23:00 +25°C° 0 mm 1 mps 717 mmHg 55%
    Show more